Vorticity
nan nan nan nan nan nan nan nan nan nan nan nan nan nan nan nan nan nan nan nan nan nan nan nan nan nan nan nan nan nan nan nan nan nan nan nan nan nan nan nan nan nan nan
nan 8 7 5 4 6 8 7 5 5 5 5 4 4 4 5 5 5 5 4 5 5 4 4 6 5 5 5 5 5 5 4 2 2 4 4 5 4 4 9 9 9 nan
nan 6 5 6 5 5 6 8 8 6 6 5 5 4 4 4 5 5 5 4 5 5 5 6 6 5 4 4 4 5 4 3 3 3 2 5 8 6 3 7 9 7 nan
nan 5 7 7 5 5 4 4 7 8 6 5 5 5 5 4 5 5 5 5 5 6 6 7 4 4 4 4 4 4 4 4 3 1 1 7 9 6 4 5 5 5 nan
nan 7 8 6 6 5 4 4 4 6 7 6 6 6 7 5 4 4 3 6 8 7 6 5 5 4 4 4 5 5 4 5 4 0 3 5 6 7 5 4 4 5 nan
nan 7 8 6 6 6 6 6 5 5 5 6 6 6 7 6 4 4 4 4 7 7 6 5 5 4 4 4 5 5 5 4 4 10 11 6 7 7 5 5 4 4 nan
nan 6 7 7 5 5 6 6 6 6 5 6 7 6 6 6 5 5 5 5 5 6 6 5 4 4 4 4 4 3 6 4 6 12 12 9 12 13 8 7 7 6 nan
nan 6 7 7 5 5 5 6 6 6 6 5 6 6 6 6 7 6 6 6 6 6 6 5 4 4 5 4 4 3 4 5 9 9 6 8 11 14 10 7 10 8 nan
nan 7 6 7 8 7 5 5 5 6 6 6 6 6 6 7 7 6 7 7 7 6 6 6 6 6 5 5 5 5 3 4 7 9 7 9 10 6 7 6 6 6 nan
nan 6 6 5 6 6 8 8 5 5 5 5 6 6 7 7 7 7 8 7 7 6 6 7 7 6 5 6 5 5 6 4 7 8 6 9 9 5 4 5 5 4 nan
nan 6 6 6 7 7 7 8 8 7 7 5 6 7 7 7 8 9 8 8 8 6 6 7 6 6 6 6 5 5 4 6 7 6 8 11 7 5 4 4 4 4 nan
nan 6 6 6 6 7 7 7 7 7 7 8 8 8 7 8 8 8 9 10 9 8 8 7 7 5 4 5 8 7 5 7 6 6 10 9 5 6 5 6 5 5 nan
nan 6 6 6 7 6 7 6 7 8 7 8 9 8 8 7 7 8 8 9 11 10 8 9 7 8 7 6 7 7 6 6 7 7 11 10 6 4 5 5 6 5 nan
nan 5 7 8 7 5 6 7 7 6 7 8 9 9 9 8 9 8 8 9 8 10 8 7 8 8 8 7 7 6 6 6 6 8 9 10 10 8 6 5 6 6 nan
nan 8 9 8 6 7 6 6 7 7 7 8 8 9 8 8 9 9 9 8 8 8 9 7 7 7 7 7 7 7 7 6 7 6 11 12 9 8 7 6 5 7 nan
nan 9 8 6 7 7 7 6 6 7 7 7 7 8 8 7 8 8 8 8 7 7 7 9 8 8 8 7 7 8 7 7 8 7 7 14 13 7 9 7 5 6 nan
nan 9 9 9 9 7 6 6 7 7 7 7 8 8 8 7 8 8 7 7 7 9 9 8 8 8 8 8 8 7 8 8 8 9 8 10 13 13 9 8 7 7 nan
nan 10 7 9 9 7 7 7 7 7 7 7 7 8 8 9 7 7 8 8 8 8 8 9 10 8 8 8 8 7 8 8 9 10 8 9 10 10 11 9 8 9 nan
nan 9 7 9 8 8 7 8 8 8 7 8 7 8 8 10 9 6 7 8 8 7 7 8 8 10 9 8 9 8 8 9 8 9 10 8 7 7 11 12 10 9 nan
nan 22 21 11 8 8 7 7 8 8 9 9 8 7 8 10 9 7 7 8 7 7 7 8 9 8 9 10 9 9 8 7 9 9 8 9 9 7 7 10 9 12 nan
nan 14 19 22 16 6 7 8 9 9 7 8 9 8 10 10 9 8 7 8 7 7 8 7 8 8 9 10 8 9 10 10 8 7 10 10 8 8 8 6 7 9 nan
nan 7 9 14 17 17 8 9 10 10 9 9 9 10 10 9 8 8 8 8 7 7 8 8 7 8 9 8 6 7 10 9 11 10 7 9 9 10 10 9 8 6 nan
nan 8 9 9 11 14 16 12 7 8 9 10 9 10 10 9 8 8 8 8 8 8 8 8 9 7 7 8 9 5 9 9 8 12 12 7 7 9 9 10 10 8 nan
nan 7 6 8 11 8 14 19 14 7 7 7 7 7 10 11 9 9 8 8 7 8 8 8 8 8 9 8 9 9 6 10 8 7 10 11 11 10 8 9 10 9 nan
nan 9 8 7 7 7 10 13 19 16 6 7 6 7 10 12 11 9 10 9 8 8 9 8 7 8 7 9 8 10 8 7 9 8 7 9 11 11 10 9 8 10 nan
nan nan nan nan nan nan nan nan nan nan nan nan nan nan nan nan nan nan nan nan nan nan nan nan nan nan nan nan nan nan nan nan nan nan nan nan nan nan nan nan nan nan nan
CAPE
1154 1561 2207 1791 1702 1831 2058 1921 2024 2256 2292 1711 1532 1304 1039 1010 1058 1322 1341 1083 1112 954 529 248 199 210 181 149 55 34 189 368 381 276 435 435 213 11 590 663 707 310 540
1195 1565 2056 2178 1995 1967 2151 2240 2402 2348 2352 2238 1596 1391 1136 784 614 657 951 711 670 507 395 384 357 270 170 242 346 339 238 139 223 442 345 261 309 83 545 592 800 339 286
1384 1749 1739 2099 2256 2041 1695 1970 2230 2203 2294 2210 1831 1550 1434 748 693 520 616 617 729 491 438 827 497 255 250 341 331 265 324 341 363 387 129 14 144 147 532 493 637 509 310
1497 1572 1911 2545 2018 1567 1654 1640 2071 2222 2027 2071 1941 1542 1636 1020 1002 787 925 883 922 954 1226 1041 650 534 503 579 464 345 251 260 325 108 0 0 191 100 348 582 653 556 276
1349 1588 1855 2420 2245 2039 1749 1570 1664 1796 1976 2080 1914 1947 1630 1383 1219 999 1064 1416 1531 1470 1321 1099 893 884 671 504 549 346 260 263 114 14 0 0 40 144 89 325 487 258 274
927 1209 1889 2184 2279 2161 2251 2055 1712 1577 1616 1703 1978 1849 1785 1554 1378 1317 1554 1411 1473 1275 1364 1079 1002 897 675 517 486 490 224 157 0 0 0 0 2 236 291 286 275 287 374
480 627 1031 1883 1911 1957 1951 2011 1945 1537 1512 1504 1738 1618 1313 1239 1426 1388 1346 1215 1441 1346 1220 1006 924 821 560 438 476 499 361 86 0 7 1 102 145 362 591 715 682 667 590
18 0 384 1172 1768 1876 1806 1688 1709 1624 1624 1606 1624 1587 1688 1548 1755 1683 1364 1363 1477 1207 1013 986 833 537 427 351 329 323 153 9 0 4 4 137 497 726 647 517 487 481 649
0 0 0 176 930 1480 1606 1587 1587 1593 1547 1691 1686 1461 1476 1617 1570 1570 1380 1460 1520 1256 1274 1112 862 547 262 260 301 236 3 0 0 0 0 5 521 621 533 578 621 638 571
0 0 0 0 0 104 473 885 926 960 998 1193 1235 1235 904 1053 958 1295 1065 1104 1385 1259 1189 1098 1153 711 452 487 385 81 0 0 0 24 2 24 637 552 419 446 452 279 333
0 0 0 0 0 0 0 0 0 0 125 387 626 772 734 356 428 641 798 598 986 1127 1213 1180 1255 1044 601 416 274 73 0 0 0 2 15 183 626 360 252 271 219 141 156
0 0 0 0 0 0 0 0 0 0 0 0 7 121 213 187 119 333 571 535 616 702 814 1212 1216 973 420 178 162 34 0 0 0 0 2 300 517 369 76 128 191 81 69
0 0 0 0 0 0 0 0 0 0 0 0 0 0 52 95 16 35 120 175 187 506 446 619 812 737 262 63 18 0 0 0 0 0 0 182 510 478 124 59 64 48 28
0 0 0 0 0 0 0 0 0 0 0 0 0 0 0 14 23 0 15 77 101 141 260 326 211 407 268 53 14 10 0 0 0 0 0 6 398 550 291 63 29 4 1
0 0 0 0 0 0 0 0 0 0 0 0 0 0 0 0 36 27 102 188 122 85 49 72 90 160 223 128 0 32 11 0 0 0 0 0 24 603 731 251 135 25 13
0 0 0 0 0 0 0 0 0 0 0 0 0 0 0 0 0 50 50 73 56 112 0 0 0 24 91 101 66 0 9 5 0 0 0 0 4 201 689 594 331 206 35
0 0 0 0 0 0 0 0 0 0 0 0 0 0 0 0 0 0 0 4 14 22 48 8 1 0 0 0 3 0 0 0 0 0 0 0 0 34 327 953 773 567 144
0 0 0 0 0 0 0 0 0 0 0 0 0 0 0 0 0 0 0 0 0 0 4 14 15 0 0 0 0 0 0 0 0 0 0 0 0 1 31 475 688 783 449
0 0 0 0 0 0 0 0 0 0 0 0 0 0 0 0 0 0 0 0 0 0 0 0 0 13 14 5 0 0 0 0 0 0 0 0 0 0 1 39 166 269 227
0 0 0 0 0 0 0 0 0 0 0 0 0 0 0 0 0 0 0 0 0 0 0 0 0 0 9 104 0 0 0 0 0 0 0 0 0 0 0 0 8 19 30
0 0 0 0 0 0 0 0 0 0 0 0 0 0 0 0 0 0 0 0 0 0 0 0 0 0 0 111 119 3 0 0 0 0 0 0 0 0 0 0 2 1 0
0 0 0 0 0 0 0 0 0 0 0 0 0 0 0 0 0 0 0 0 0 0 0 0 0 0 0 0 36 13 31 1 0 0 0 0 0 0 0 0 2 0 3
0 0 0 0 0 0 0 0 0 0 0 0 0 0 0 0 0 0 0 0 0 0 0 0 0 0 0 0 0 20 15 32 0 0 0 0 0 0 0 3 3 1 3
0 0 0 0 0 0 0 3 0 0 0 0 0 0 0 0 0 0 0 0 0 0 0 0 0 0 0 0 0 0 0 0 17 1 0 0 0 0 0 2 0 0 3
0 0 0 0 0 0 0 1 8 0 0 0 0 0 0 0 0 0 0 0 0 0 0 0 0 0 0 0 0 0 1 0 0 0 2 0 0 0 0 0 0 0 0
0 0 2 2 0 0 0 0 3 4 1 0 0 0 0 0 0 0 0 0 0 0 0 0 0 0 0 0 0 0 3 3 1 1 0 1 7 1 2 0 3 0 0